Regional Weather Roundup
Issued by NWS Sterling, VA

Home | Current Version | Previous Version | Text Only | Print | Product List | Glossary On
Versions: 1 2 3 4 5 6 7 8 9 10 11 12 13 14 15 16 17 18 19 20 21 22 23 24 25 26 27 28 29 30 31 32 33 34 35 36 37 38 39 40 41 42 43 44 45 46 47 48 49 50
000
ASUS41 KLWX 290710
RWRLWX

REGIONAL WEATHER ROUNDUP
NATIONAL WEATHER SERVICE BALTIMORE MD/WASHINGTON DC
300 AM EDT TUE JUL 29 2014

Note: "FAIR" indicates few or no clouds below 12,000 feet
with no significant weather and/or obstructions to visibility.
 TC=TEMPERATURE CELSIUS

 * =Non NWS site. Station does not report precipitation (e.g. rain,
    snow, etc.), thunder, or fog.

DCZ001-MDZ009-015-VAZ040>042-051-053>054-290800-
WASHINGTON METRO
  /KDAA//-FT BELVOIR

CITY           SKY/WX    TMP DP  RH WIND       PRES   REMARKS
WASHINGTON NAT CLEAR     69  56  62 NW9       29.86R
DULLES         CLEAR     63  55  75 NW7       29.87R
ANDREWS AFB    CLEAR     67  57  72 NW13      29.85R
QUANTICO       CLEAR     65  56  72 N7        29.87R
COLLEGE PARK*  CLEAR     68  59  73 NW6       29.85R
LEESBURG*      CLEAR     63  59  88 NW7       29.88S
GAITHERSBURG*  CLEAR     61  55  82 W5        29.90R

$$

MDZ006>007-011-014-290800-
BALTIMORE METRO

CITY           SKY/WX    TMP DP  RH WIND       PRES   REMARKS
BWI AIRPORT    CLEAR     63  57  81 W7        29.84R
MD SCIENCE CTR   N/A     68  58  70 MISG      29.84R
MARTIN STATE   CLEAR     66  59  77 NW5       29.85R
ANNAPOLIS      CLEAR     67  58  72 W8        29.84R
FORT MEADE*    CLEAR     61  57  88 CALM      29.87R

$$

MDZ012-015-019>023-290800-
MARYLAND EASTERN SHORE

CITY           SKY/WX    TMP DP  RH WIND       PRES   REMARKS
OCEAN CITY     CLEAR     66  61  84 NW3       29.82R
SALISBURY      NOT AVBL
BAY BRIDGE AP*   N/A     68  59  73 W8        29.84R
CAMBRIDGE*     MOCLDY    72  59  64 N8        29.82S
EASTON*        PTCLDY    70  60  69 N5        29.86S

$$

MDZ017>025-290800-
SOUTHERN MARYLAND

CITY           SKY/WX    TMP DP  RH WIND       PRES   REMARKS
PATUXENT RIVER CLEAR     68  59  73 NW8       29.83S
ST INIGOES     CLEAR     68  57  68 NW7       29.83S
LEONARDTOWN*   CLEAR     64  57  77 W3        29.85F

$$

MDZ003>005-290800-
NORTH CENTRAL MARYLAND

CITY           SKY/WX    TMP DP  RH WIND       PRES   REMARKS
FREDERICK*     CLOUDY    64  59  82 W8        29.89R
HAGERSTOWN APT PTCLDY    62  54  74 W5        29.87R
WESTMINSTER*   PTCLDY    63  59  88 NW3       29.85S

$$

MDZ501>502-290800-
WESTERN MARYLAND

CITY           SKY/WX    TMP DP  RH WIND       PRES   REMARKS
OAKLAND*       CLOUDY    48 N/A N/A NW7       29.96S
CUMBERLAND*    NOT AVBL

$$

VAZ025>031-290800-
SHENANDOAH VALLEY

CITY           SKY/WX    TMP DP  RH WIND       PRES   REMARKS
WINCHESTER*    CLEAR     61  52  72 NW8       29.89S
STAUNTON*      CLEAR     55  51  87 CALM      29.94S

$$

WVZ021-048>050-054>055-290800-
EASTERN WEST VIRGINIA PANHANDLE

CITY           SKY/WX    TMP DP  RH WIND       PRES   REMARKS
MARTINSBURG    CLEAR     63  51  65 NW9       29.89S
PETERSBURG*    PTCLDY    53  49  87 CALM      29.94F

$$

VAZ036>039-050-290800-
CENTRAL FOOTHILLS

CITY           SKY/WX    TMP DP  RH WIND       PRES   REMARKS
CHARLOTTESVILL CLEAR     63  50  62 NW6       29.89S
ORANGE*        CLEAR     57  54  88 CALM      29.90S

$$

VAZ055>057-290800-
NORTH AND CENTRAL PIEDMONT

CITY           SKY/WX    TMP DP  RH WIND       PRES   REMARKS
FREDERICKSBRG* CLEAR     67  57  70 NW7       29.86S
STAFFORD*      CLEAR     61  61 100 N5        29.91R

$$

NCZ024-NYZ072-PAZ021-071-VAZ022-071-290800-
OTHER REGIONAL OBSERVATIONS

CITY           SKY/WX    TMP DP  RH WIND       PRES   REMARKS
NEW YORK CITY  CLEAR     66  53  63 NW8G17    29.78R
PHILADELPHIA   CLEAR     68  55  63 NW8       29.81R
PITTSBURGH     PTCLDY    54  51  90 SW5       29.95S
ROANOKE        CLEAR     60  53  77 NW6       29.93F
RICHMOND       CLEAR     69  57  65 NW9       29.86S
RALEIGH        PTCLDY    68  56  65 CALM      29.88S

$$

ANZ530>537-290800-
MARINE OBSERVATIONS

STATION/POSITION TIME  TEMP    WIND        PRES
                       AIR SEA DIR/SP/G
                 (UTC) (F)     (DEG/KT/KT) (MB)
THOMAS PT LIGHT  0700   68 78  320/ 11/ 13 1010.8R
BALT KEY BRIDGE  0700   76     290/  9/ 11 1010.1R
COVE POINT       0700   70     330/ 14/ 19 1009.9F
LEWISETTA        0700   71 78  340/  9/ 15 1010.1S
SOLOMONS ISLAND  0700      80                N/A
PINEY POINT      0700          350/ 20/ 22   N/A

$$



USA.gov is the U.S. government's official web portal to all federal, state and local government web resources and services.